Regional Weather Roundup
Issued by NWS

Home | Current Version | Previous Version | Text Only | Print | Product List | Glossary Off
Versions: 1 2 3 4 5 6 7 8 9 10 11 12 13 14 15 16 17 18 19 20 21 22 23 24 25 26 27 28 29 30 31 32 33 34 35 36 37 38 39 40 41 42 43 44 45 46 47 48 49 50

000
ASUS45 KBOU 301407
RWRCO

WEATHER ROUNDUP FOR COLORADO
NATIONAL WEATHER SERVICE DENVER/BOULDER CO
800 AM MDT WED JUL 30 2014

NOTE: "FAIR" INDICATES FEW OR NO CLOUDS BELOW 12000 FEET WITH NO
SIGNIFICANT WEATHER AND/OR OBSTRUCTIONS TO VISIBILITY.

COZ001>005-013-030-031-301500-
...NORTHWEST COLORADO...

CITY           SKY/WX    TMP DP  RH WIND       PRES   REMARKS
CRAIG          CLOUDY    55  32  41 W8        30.30S
HAYDEN         CLOUDY    57  54  88 CALM      30.31S
MEEKER         CLOUDY    55  52  89 CALM      30.32S
MOUNT WERNER   NOT AVBL
STEAMBOAT SPGS CLOUDY    55  53  96 E5        30.32S
WALDEN         CLOUDY    52  50  93 E7        30.40R
$$

COZ006>008-011-301500-
...WEST CENTRAL VALLEYS...

CITY           SKY/WX    TMP DP  RH WIND       PRES   REMARKS
GRAND JUNCTION MOSUNNY   62  58  86 E3        30.22R
MONTROSE       MOSUNNY   60  54  80 VRB3      30.29R
EAGLE          PTSUNNY   57  55  94 CALM      30.34R
RIFLE          MOSUNNY   59  55  87 CALM      30.27S
DELTA          MOSUNNY   63  56  79 E3        30.25S
NUCLA          MOSUNNY   63  52  67 CALM      30.31R
$$

COZ017>023-064>068-301500-
...SOUTHWEST COLORADO...

CITY           SKY/WX    TMP DP  RH WIND       PRES   REMARKS
DURANGO        MOSUNNY   60  52  74 N5        30.29R
CORTEZ         SUNNY     63  52  67 NE7       30.26R
PAGOSA SPRINGS MOSUNNY   61  49  65 CALM      30.38R
TELLURIDE      MOSUNNY   55  48  76 CALM      30.45S
WOLF CREEK PAS NOT AVBL
$$

COZ009-010-012-014-032>034-037-058>063-301500-
...CENTRAL COLORADO...

CITY           SKY/WX    TMP DP  RH WIND       PRES   REMARKS
ASPEN          PTSUNNY   53  49  86 SW3       30.38R
BUENA VISTA    CLOUDY    57  48  73 CALM      30.38S
COPPER MTN     CLOUDY    46  41  81 W8        30.62S
BERTHOUD PASS  DRZL/FOG  37  36  93 MISG      30.66S VSB 1/4
COTTONWOOD PAS CLOUDY    54  46  76 CALM      30.50R
GUNNISON       CLOUDY    54  46  76 N5        30.41S
KREMMLING      DRIZZLE   55  52  88 CALM      30.38R
LEADVILLE      CLOUDY    48  44  86 CALM      30.48R
MONARCH PASS   CLOUDY    43  37  81 NW10      30.72R
SALIDA         CLOUDY    57  55  92 CALM      30.44S
SUNLIGHT       PTSUNNY   46  45  93 W3        30.56R
WILKERSON PASS SNOW      45  43  93 NE3       30.60R VSB 1/4
$$

COZ069>075-301500-
...SAN LUIS VALLEY/SANGRE DE CRISTO MOUNTAINS...

CITY           SKY/WX    TMP DP  RH WIND       PRES   REMARKS
ALAMOSA        SUNNY     56  53  90 CALM      30.35R
LA VETA PASS   FOG       46  45  93 CALM      30.51R VSB 1/2
SAGUACHE       CLOUDY    55  48  76 NW6       30.38S
$$

COZ035-036-038>040-301500-
...NORTHERN COLORADO FRONT RANGE...

CITY           SKY/WX    TMP DP  RH WIND       PRES   REMARKS
DENVER INTL AP HVY RAIN  58  57  97 NE6       30.30R FOG
DMNS CITY PARK   N/A     59  57  96 NE5       30.31R
AURORA         RAIN      58  58 100 NE10      30.32R FOG
FRONT RANGE AP NOT AVBL
ERIE MUNI ARPT LGT RAIN  60  59  97 NE6       30.31R
BOULDER MUN AP LGT RAIN  59  59 100 N5        30.31R
CENTENNIAL     LGT RAIN  58  55  90 N6        30.32R FOG
BROOMFIELD     RAIN      59  59 100 VRB5      30.32S
FORT COLLINS   CLOUDY    59  57  94 N7        30.33R
LONGMONT       RAIN      62  60  93 N7        30.32S
$$

COZ041-046-047-076>085-087-088-301500-
...PIKES PEAK/PALMER DIVIDE AND SOUTHERN FOOTHILLS...

CITY           SKY/WX    TMP DP  RH WIND       PRES   REMARKS
COLO. SPRINGS  LGT RAIN  58  56  93 NE5       30.33R FOG
A. F. ACADEMY  DRIZZLE   57  56  99 NW8       30.34R
ELLICOTT       LGT RAIN  58  55  90 MISG      30.30R
FALCON         DRIZZLE   55  54  97 NE9       30.36R
FORT CARSON    LGT RAIN  59  57  94 N6        30.31R FOG
LIMON          CLOUDY    58  56  93 NE12      30.29R
MONUMENT HILL  RAIN      52  52 100 NE5       30.36R
TRINIDAD       LGT RAIN  60  57  89 N10       30.27R
$$

COZ042>045-048>051-090-091-301500-
...NORTHEAST COLORADO...

CITY           SKY/WX    TMP DP  RH WIND       PRES   REMARKS
GREELEY ARPT   NOT AVBL
AKRON          CLOUDY    59  57  93 E8        30.28S FOG
BURLINGTON     CLOUDY    60  56  86 E15G22    30.23R
WRAY             N/A    N/A N/A N/A E5        30.25R
STERLING       CLOUDY    64  63  94 E3        30.26S FOG
HOLYOKE        CLOUDY    63  61  94 CALM      30.27R
FORT MORGAN    CLOUDY    61  58  91 E9        30.29R
$$

COZ086-089-092>099-301500-
...SOUTHEAST COLORADO...

CITY           SKY/WX    TMP DP  RH WIND       PRES   REMARKS
PUEBLO         LGT RAIN  64  60  87 NE7       30.24R
LA JUNTA       CLOUDY    64  60  87 N15       30.21R
LAMAR          CLOUDY    64  62  93 N14       30.15R
SPRINGFIELD      N/A     63  62  97 N16       30.15R
$$


USA.gov is the U.S. government's official web portal to all federal, state and local government web resources and services.